Regional Weather Roundup
Issued by NWS State College, PA

Home | Current Version | Previous Version | Graphics & Text | Print | Product List | Glossary Off
Versions: 1 2 3 4 5 6 7 8 9 10 11 12 13 14 15 16 17 18 19 20 21 22 23 24 25 26 27 28 29 30 31 32 33 34 35 36 37 38 39 40 41 42 43 44 45 46 47 48 49 50

000
ASUS41 KCTP 232303
RWRCTP

REGIONAL WEATHER ROUNDUP
NATIONAL WEATHER SERVICE STATE COLLEGE PA
700 PM EDT SAT JUL 23 2016

Note: "fair" indicates few or no clouds below 12,000 feet with no
significant weather and/or obstructions to visibility.

* = STATION THAT DOES NOT REPORT PRECIPITATION /E.G. RAIN...SNOW...ETC/
    THUNDER OR FOG.

PAZ002>004-007>009-013>016-020>023-029>032-240000-
WESTERN PENNSYLVANIA

CITY           SKY/WX    TMP DP  RH WIND       PRES   REMARKS
ERIE           SUNNY     86  60  41 W8        29.96F
MEADVILLE      SUNNY     82  57  42 N6        30.00F
FRANKLIN*      SUNNY     84  61  45 NW7       30.01F
NEW CASTLE     FAIR      90  61  37 N9        29.97S
BEAVER COUNTY  NOT AVBL
BUTLER*        CLOUDY    88  61  40 N3        30.00S
PITTSBURGH INT CLOUDY    81  70  69 S3        29.97R
PITTSBURGH     PTSUNNY   78  69  73 S10       29.98R
INDIANA*       SUNNY     90  57  33 NW8       30.00S
LATROBE        MOSUNNY   84  73  70 W7        29.99R
WASHINGTON CO* PTSUNNY   75  72  88 SE3       29.99F
$$

PAZ004>006-010>012-017>019-024>028-033>037-041-042-045-046-049>053-240000-
CENTRAL PENNSYLVANIA

CITY           SKY/WX    TMP DP  RH WIND       PRES   REMARKS
BRADFORD       SUNNY     82  53  36 NW13      30.02S
DUBOIS         SUNNY     86  56  35 NW10      29.99S
CLEARFIELD     SUNNY     90  53  28 MISG      29.97S
JOHNSTOWN      SUNNY     83  66  56 W10       30.03S
ALTOONA        SUNNY     87  68  52 W12       29.96S
STATE COLLEGE  SUNNY     91  55  29 NW9G18    29.93R
WILLIAMSPORT   SUNNY     95  48  20 NW14      29.84R
SELINSGROVE    SUNNY     93  55  27 NW10      29.86R
FT INDIANTOWN  SUNNY     95  56  27 VRB5      29.85R
CAPITAL CITY   SUNNY     98  55  23 NW10      29.85R HX  96
HARRISBURG     MOSUNNY   96  59  29 NW6       29.84R HX  95
YORK           CLOUDY    86  71  60 CALM      29.88R
$$

PAZ038>040-043-044-047-048-054-055-060>062-067>071-240000-
EASTERN PENNSYLVANIA

CITY           SKY/WX    TMP DP  RH WIND       PRES   REMARKS
SCRANTON       SUNNY     92  50  23 NW16      29.87R
MOUNT POCONO   SUNNY     85  32  15 NW14G22   29.93R
ALLENTOWN      SUNNY     94  57  28 W8        29.83R
QUAKERTOWN*    CLEAR     93  59  31 CALM      29.86R
READING        SUNNY     88  66  48 SW14      29.84R
LANCASTER      CLOUDY    80  68  66 SW14G23   29.87R
COATESVILLE    CLOUDY    77  70  78 W8G14     29.91R
POTTSTOWN      SUNNY     87  67  51 SW8       29.87R
BLUE BELL      MOSUNNY   81  70  69 S3        29.85R
DOYLESTOWN     SUNNY     85  67  54 S7        29.84R
WILLOW GROVE   NOT AVBL
NORTH PHILA    CLOUDY    84  70  62 SW9       29.86R
PHILADELPHIA   CLOUDY    84  71  65 S6        29.86R
$$



USA.gov is the U.S. government's official web portal to all federal, state and local government web resources and services.